TimeEDT,TemperatureF,Dew PointF,Humidity,Sea Level PressureIn,VisibilityMPH,Wind Direction,Wind SpeedMPH,Gust SpeedMPH,PrecipitationIn,Events,Conditions,WindDirDegrees,DateUTC
12:54 AM,72.0,68.0,87,30.19,10.0,Calm,Calm,-,0.00,Rain,Light Rain,0,2013-06-23 04:54:00
1:44 AM,69.8,69.8,100,30.20,10.0,Calm,Calm,-,0.00,Rain,Light Rain,0,2013-06-23 05:44:00
1:54 AM,70.0,69.1,97,30.17,10.0,Calm,Calm,-,0.00,,Overcast,0,2013-06-23 05:54:00
2:14 AM,69.8,69.8,100,30.18,10.0,Calm,Calm,-,N/A,,Mostly Cloudy,0,2013-06-23 06:14:00
2:54 AM,70.0,69.1,97,30.14,10.0,Calm,Calm,-,N/A,,Clear,0,2013-06-23 06:54:00
3:20 AM,69.8,69.8,100,30.17,10.0,Calm,Calm,-,N/A,,Mostly Cloudy,0,2013-06-23 07:20:00
3:40 AM,69.8,69.8,100,30.17,10.0,Calm,Calm,-,N/A,,Overcast,0,2013-06-23 07:40:00
3:54 AM,70.0,68.0,93,30.14,10.0,Calm,Calm,-,N/A,,Overcast,0,2013-06-23 07:54:00
4:35 AM,69.8,68.0,94,30.18,10.0,SSW,3.5,-,N/A,,Overcast,210,2013-06-23 08:35:00
4:44 AM,69.8,68.0,94,30.18,10.0,Calm,Calm,-,N/A,,Overcast,0,2013-06-23 08:44:00
4:54 AM,69.1,68.0,96,30.15,10.0,SSW,3.5,-,N/A,,Overcast,210,2013-06-23 08:54:00
5:54 AM,70.0,68.0,93,30.17,10.0,Calm,Calm,-,N/A,,Overcast,0,2013-06-23 09:54:00
6:06 AM,69.8,69.8,100,30.20,10.0,Calm,Calm,-,N/A,,Overcast,0,2013-06-23 10:06:00
6:14 AM,69.8,69.8,100,30.20,10.0,Calm,Calm,-,N/A,,Overcast,0,2013-06-23 10:14:00
6:54 AM,70.0,69.1,97,30.18,4.0,Calm,Calm,-,N/A,,Overcast,0,2013-06-23 10:54:00
7:22 AM,71.6,69.8,94,30.21,10.0,Calm,Calm,-,N/A,,Overcast,0,2013-06-23 11:22:00
7:54 AM,72.0,69.1,91,30.19,10.0,Calm,Calm,-,N/A,,Overcast,0,2013-06-23 11:54:00
8:54 AM,73.9,69.1,85,30.21,10.0,West,4.6,-,N/A,,Mostly Cloudy,260,2013-06-23 12:54:00
9:54 AM,75.0,69.1,82,30.21,10.0,South,4.6,-,N/A,,Mostly Cloudy,190,2013-06-23 13:54:00
10:54 AM,78.1,69.1,74,30.20,10.0,South,4.6,-,N/A,,Scattered Clouds,180,2013-06-23 14:54:00
11:09 AM,78.8,68.0,69,30.23,10.0,Variable,3.5,-,N/A,,Mostly Cloudy,0,2013-06-23 15:09:00
11:49 AM,80.6,69.8,70,30.23,10.0,Variable,3.5,-,N/A,,Mostly Cloudy,0,2013-06-23 15:49:00
11:54 AM,82.9,70.0,65,30.20,10.0,Variable,5.8,-,N/A,,Mostly Cloudy,0,2013-06-23 15:54:00
12:54 PM,82.9,68.0,60,30.18,10.0,SW,5.8,-,N/A,,Scattered Clouds,220,2013-06-23 16:54:00
1:54 PM,86.0,68.0,55,30.17,10.0,SSW,8.1,-,N/A,,Scattered Clouds,200,2013-06-23 17:54:00
2:54 PM,87.1,66.0,49,30.15,10.0,Variable,4.6,-,N/A,,Clear,0,2013-06-23 18:54:00
3:54 PM,87.1,66.0,49,30.13,10.0,South,8.1,-,N/A,,Clear,190,2013-06-23 19:54:00
4:54 PM,87.1,64.9,48,30.11,10.0,SSW,4.6,-,N/A,,Clear,200,2013-06-23 20:54:00
5:54 PM,87.1,66.0,49,30.11,10.0,South,9.2,-,N/A,,Clear,180,2013-06-23 21:54:00
6:54 PM,84.9,66.9,55,30.12,10.0,South,10.4,-,N/A,,Clear,170,2013-06-23 22:54:00
7:54 PM,81.0,68.0,65,30.12,10.0,SSW,5.8,-,N/A,,Clear,200,2013-06-23 23:54:00
8:54 PM,79.0,70.0,74,30.12,10.0,South,9.2,-,N/A,,Clear,180,2013-06-24 00:54:00
9:54 PM,77.0,69.1,76,30.16,10.0,South,8.1,-,N/A,,Clear,180,2013-06-24 01:54:00
10:54 PM,73.0,66.9,81,30.17,10.0,SSW,4.6,-,N/A,,Clear,200,2013-06-24 02:54:00
11:54 PM,72.0,66.9,84,30.18,10.0,Calm,Calm,-,N/A,,Clear,0,2013-06-24 03:54:00